W0WC Weather Reports


time (UTC)temp
F
wind
direction
speed
knots
gust
knots
rain 1hr
in
rain 24hr
in
rain mn
in
humidity
%
barometer
mb
20260906070853 82 20 0.0 0.0 0.00 0.00 0.00 61 1014.0
20260906070349 82 19 0.0 0.0 0.00 0.00 0.00 61 1013.9
20260906065844 83 12 0.0 0.0 0.00 0.00 0.00 60 1014.0
20260906065338 83 13 0.0 0.0 0.00 0.00 0.00 59 1014.0
20260906064834 83 21 0.0 0.0 0.00 0.00 0.00 58 1014.1
20260906064330 84 19 0.0 0.0 0.00 0.00 0.00 58 1014.0
20260906063824 84 19 0.0 0.0 0.00 0.00 0.00 56 1014.0
20260906063320 85 14 0.0 0.0 0.00 0.00 0.00 55 1014.0
20260906062815 85 22 0.0 0.0 0.00 0.00 0.00 55 1014.2
20260906062314 85 22 0.0 0.0 0.00 0.00 0.00 55 1014.0
20260906061810 85 7 0.9 0.9 0.00 0.00 0.00 54 1014.1
20260906061306 85 54 1.7 1.7 0.00 0.00 0.00 54 1013.9
20260906060801 85 32 0.9 0.9 0.00 0.00 0.00 54 1014.1
20260906060258 85 337 0.9 0.9 0.00 0.00 0.00 55 1014.2
20260906055754 85 9 0.0 0.0 0.00 0.00 0.00 54 1014.1
20260906055249 84 326 0.9 0.9 0.00 0.00 0.00 56 1014.1
20260906054744 85 16 0.0 0.0 0.00 0.00 0.00 57 1014.0
20260906054239 85 16 0.0 0.0 0.00 0.00 0.00 56 1013.9
20260906053736 85 9 0.0 0.0 0.00 0.00 0.00 57 1014.0
20260906053232 85 17 0.0 0.0 0.00 0.00 0.00 56 1014.1
20260906052726 86 17 0.0 0.0 0.00 0.00 0.00 56 1014.1
20260906052223 86 12 0.0 0.0 0.00 0.00 0.00 57 1014.1
20260906051720 86 14 0.0 0.0 0.00 0.00 0.00 56 1014.0
20260906051219 86 4 0.0 0.9 0.00 0.00 0.00 56 1014.2
20260906050714 85 80 0.9 0.9 0.00 0.00 0.00 58 1014.4
20260906050209 84 21 0.0 0.0 0.00 0.00 0.00 61 1014.2
20260906045708 84 47 0.9 0.9 0.00 0.00 0.00 61 1014.2
20260906045203 85 10 0.0 0.0 0.00 0.00 0.00 61 1013.9
20260906044659 85 10 0.0 0.0 0.00 0.00 0.00 60 1014.0
20260906044154 85 10 0.0 0.0 0.00 0.00 0.00 60 1014.0
20260906043650 85 11 0.0 0.0 0.00 0.00 0.00 59 1014.0
20260906043145 85 9 0.0 0.0 0.00 0.00 0.00 59 1014.0
20260906042640 86 11 0.0 0.0 0.00 0.00 0.00 58 1014.1
20260906042139 86 11 0.0 0.0 0.00 0.00 0.00 58 1014.0
20260906041629 86 12 0.0 0.0 0.00 0.00 0.00 58 1014.0
20260906041124 86 12 0.0 0.0 0.00 0.00 0.00 58 1014.1
20260906040619 86 16 0.0 0.0 0.00 0.00 0.00 58 1014.2
20260906040114 85 16 0.0 0.0 0.00 0.00 0.00 58 1014.2
20260906035609 85 16 0.0 0.0 0.00 0.00 0.00 58 1014.2
20260906035105 85 16 0.0 0.0 0.00 0.00 0.00 57 1014.0
20260906034559 86 12 0.0 0.0 0.00 0.00 0.00 57 1014.1
20260906034055 86 11 0.0 0.0 0.00 0.00 0.00 57 1014.0
20260906033550 86 17 0.0 0.0 0.00 0.00 0.00 56 1013.9
20260906033045 87 18 0.0 0.0 0.00 0.00 0.00 55 1013.9
20260906032542 87 11 0.0 0.0 0.00 0.00 0.00 55 1013.9
20260906032042 87 14 0.0 0.0 0.00 0.00 0.00 54 1013.8
20260906031537 87 15 0.0 0.0 0.00 0.00 0.00 54 1013.7
20260906031033 88 8 0.0 0.0 0.00 0.00 0.00 54 1013.8
20260906030532 88 13 0.0 0.0 0.00 0.00 0.00 53 1013.8
20260906030032 88 11 0.0 0.0 0.00 0.00 0.00 53 1013.7
20260906025532 88 15 0.0 0.0 0.00 0.00 0.00 53 1013.5
20260906025030 88 9 0.0 0.0 0.00 0.00 0.00 53 1013.5
20260906024526 88 11 0.0 0.0 0.00 0.00 0.00 52 1013.5
20260906024025 88 12 0.0 0.0 0.00 0.00 0.00 51 1013.4
20260906023522 88 21 0.0 0.0 0.00 0.00 0.00 52 1013.5
20260906023016 88 12 0.0 0.0 0.00 0.00 0.00 51 1013.4
20260906022512 89 15 0.0 0.0 0.00 0.00 0.00 51 1013.5
20260906022007 89 14 0.0 0.0 0.00 0.00 0.00 50 1013.3
20260906021502 89 13 0.0 0.0 0.00 0.00 0.00 50 1013.1
20260906020956 89 13 0.0 0.0 0.00 0.00 0.00 50 1013.3
20260906020450 90 11 0.0 0.0 0.00 0.00 0.00 49 1013.0
20260906015950 90 9 0.0 0.0 0.00 0.00 0.00 49 1013.0
20260906015449 90 7 0.0 0.0 0.00 0.00 0.00 49 1013.0
20260906014949 90 6 0.0 0.0 0.00 0.00 0.00 49 1013.0
20260906014449 90 7 0.0 0.0 0.00 0.00 0.00 48 1012.8
20260906013945 91 8 0.0 0.0 0.00 0.00 0.00 47 1012.8
20260906013440 91 9 0.0 0.0 0.00 0.00 0.00 47 1012.9
20260906012936 92 13 0.0 0.0 0.00 0.00 0.00 46 1012.8
20260906012431 92 6 0.0 0.9 0.00 0.00 0.00 45 1012.8
20260906011930 92 358 0.0 0.9 0.00 0.00 0.00 46 1012.6
20260906011426 93 8 0.0 0.0 0.00 0.00 0.00 45 1012.7
20260906010921 93 8 0.0 0.0 0.00 0.00 0.00 45 1012.5
20260906010416 93 14 0.0 0.0 0.00 0.00 0.00 44 1012.6
20260906005912 93 17 0.0 0.0 0.00 0.00 0.00 44 1012.6
20260906005412 94 10 0.0 0.0 0.00 0.00 0.00 43 1012.7
20260906004910 95 6 0.0 0.9 0.00 0.00 0.00 41 1012.5
20260906004405 95 12 0.0 0.0 0.00 0.00 0.00 40 1012.5
20260906003900 96 15 0.9 0.9 0.00 0.00 0.00 39 1012.5
20260906003355 97 11 0.0 0.9 0.00 0.00 0.00 39 1012.5
20260906002851 98 28 0.0 0.0 0.00 0.00 0.00 37 1012.4
20260906002350 98 21 0.0 0.0 0.00 0.00 0.00 37 1012.6
20260906001846 98 20 1.7 1.7 0.00 0.00 0.00 36 1012.5
20260906001341 99 13 0.9 0.9 0.00 0.00 0.00 36 1012.6
20260906000837 99 22 0.0 0.0 0.00 0.00 0.00 36 1012.6
20260906000336 99 18 1.7 1.7 0.00 0.00 0.00 35 1012.4
20260905235836 100 1 2.6 3.5 0.00 0.00 0.00 35 1012.3
20260905235331 100 359 1.7 2.6 0.00 0.00 0.00 34 1012.7
20260905234826 100 28 0.9 0.9 0.00 0.00 0.00 34 1012.7
20260905234321 100 18 0.0 0.9 0.00 0.00 0.00 34 1012.7
20260905233816 100 35 0.0 0.9 0.00 0.00 0.00 34 1012.6
20260905233311 101 59 3.5 3.5 0.00 0.00 0.00 33 1012.5
20260905232810 101 22 2.6 3.5 0.00 0.00 0.00 33 1012.4
20260905232307 101 17 0.0 0.0 0.00 0.00 0.00 33 1012.4
20260905231802 101 44 0.9 0.9 0.00 0.00 0.00 32 1012.5
20260905231257 102 103 2.6 5.2 0.00 0.00 0.00 32 1012.4
20260905230754 101 99 1.7 2.6 0.00 0.00 0.00 32 1012.4
20260905230251 101 10 0.9 0.9 0.00 0.00 0.00 33 1012.4
20260905225751 100 13 1.7 2.6 0.00 0.00 0.00 34 1012.4
20260905225246 100 9 3.5 5.2 0.00 0.00 0.00 34 1012.3
20260905224745 101 8 3.5 5.2 0.00 0.00 0.00 34 1012.5
20260905224241 102 69 0.9 0.9 0.00 0.00 0.00 34 1012.3
20260905223737 102 86 3.5 5.2 0.00 0.00 0.00 33 1012.5
20260905223234 101 84 1.7 2.6 0.00 0.00 0.00 34 1012.7
20260905222729 101 7 0.9 0.9 0.00 0.00 0.00 34 1012.5
20260905222228 102 24 1.7 1.7 0.00 0.00 0.00 32 1012.6
20260905221724 101 35 0.0 0.0 0.00 0.00 0.00 33 1012.6
20260905221221 101 31 2.6 2.6 0.00 0.00 0.00 33 1012.4
20260905220717 101 352 1.7 2.6 0.00 0.00 0.00 33 1012.7
20260905220212 100 17 0.0 0.0 0.00 0.00 0.00 33 1012.6
20260905215712 101 28 0.0 0.0 0.00 0.00 0.00 32 1012.7
20260905215208 102 7 1.7 2.6 0.00 0.00 0.00 31 1012.5
20260905214703 103 18 1.7 1.7 0.00 0.00 0.00 30 1012.8
20260905214159 104 44 2.6 2.6 0.00 0.00 0.00 30 1012.9
20260905213654 103 9 0.9 1.7 0.00 0.00 0.00 30 1012.9
20260905213149 103 27 0.0 0.9 0.00 0.00 0.00 31 1012.9
20260905212644 103 76 1.7 2.6 0.00 0.00 0.00 31 1013.0
20260905212144 103 198 3.5 3.5 0.00 0.00 0.00 31 1013.1
20260905211638 104 21 2.6 2.6 0.00 0.00 0.00 32 1013.1
20260905211134 104 10 0.0 0.9 0.00 0.00 0.00 31 1013.2
20260905210631 103 0 0.0 0.0 0.00 0.00 0.00 33 1013.3
20260905210125 103 3 1.7 1.7 0.00 0.00 0.00 32 1013.2
20260905205624 102 227 3.5 3.5 0.00 0.00 0.00 33 1013.2
20260905205124 101 103 3.5 3.5 0.00 0.00 0.00 34 1013.4
20260905204623 102 4 2.6 2.6 0.00 0.00 0.00 34 1013.3
20260905204119 102 21 2.6 3.5 0.00 0.00 0.00 33 1013.6
20260905203619 102 7 3.5 5.2 0.00 0.00 0.00 34 1013.5
20260905203114 101 351 0.0 0.9 0.00 0.00 0.00 34 1013.9
20260905202610 101 3 1.7 1.7 0.00 0.00 0.00 33 1013.9
20260905202105 102 301 1.7 1.7 0.00 0.00 0.00 33 1013.8
20260905201600 102 358 0.9 1.7 0.00 0.00 0.00 33 1014.1
20260905201100 102 58 0.9 0.9 0.00 0.00 0.00 33 1014.1
20260905200556 102 205 2.6 3.5 0.00 0.00 0.00 33 1014.0
20260905200050 102 140 1.7 1.7 0.00 0.00 0.00 34 1014.4
20260905195543 101 9 2.6 3.5 0.00 0.00 0.00 33 1014.1
20260905195039 102 19 4.3 6.1 0.00 0.00 0.00 34 1014.1
20260905194539 102 54 1.7 2.6 0.00 0.00 0.00 34 1014.2
20260905194038 101 57 1.7 1.7 0.00 0.00 0.00 34 1014.6
20260905193533 101 51 1.7 1.7 0.00 0.00 0.00 35 1014.5
20260905193029 101 24 1.7 2.6 0.00 0.00 0.00 35 1014.6
20260905192524 101 204 1.7 2.6 0.00 0.00 0.00 35 1014.8
20260905192020 99 7 0.9 0.9 0.00 0.00 0.00 36 1014.8
20260905191518 98 16 4.3 5.2 0.00 0.00 0.00 37 1014.9
20260905191018 100 16 1.7 1.7 0.00 0.00 0.00 36 1015.1
20260905190516 102 6 0.9 1.7 0.00 0.00 0.00 35 1015.1
20260905190015 101 21 0.9 1.7 0.00 0.00 0.00 35 1015.0
20260905185510 101 81 1.7 1.7 0.00 0.00 0.00 36 1015.0
20260905185009 100 359 0.9 1.7 0.00 0.00 0.00 37 1015.0
20260905184504 100 35 1.7 1.7 0.00 0.00 0.00 36 1015.4
20260905184003 100 47 0.9 1.7 0.00 0.00 0.00 36 1015.3
20260905183457 98 9 2.6 2.6 0.00 0.00 0.00 37 1015.5
20260905182952 97 117 1.7 2.6 0.00 0.00 0.00 38 1015.5
20260905182451 96 25 0.9 1.7 0.00 0.00 0.00 40 1015.6
20260905181947 97 7 3.5 3.5 0.00 0.00 0.00 41 1015.7
20260905181446 98 9 2.6 2.6 0.00 0.00 0.00 40 1015.7
20260905180946 99 345 3.5 5.2 0.00 0.00 0.00 39 1015.6
20260905180440 99 5 0.9 1.7 0.00 0.00 0.00 39 1015.8
20260905175936 98 31 1.7 1.7 0.00 0.00 0.00 39 1016.0
20260905175435 101 48 3.5 5.2 0.00 0.00 0.00 38 1015.9
20260905174931 101 354 1.7 2.6 0.00 0.00 0.00 37 1016.0
20260905174426 100 257 3.5 3.5 0.00 0.00 0.00 38 1016.2
20260905173921 100 45 0.9 0.9 0.00 0.00 0.00 38 1016.0
20260905173419 100 176 2.6 3.5 0.00 0.00 0.00 38 1016.4
20260905172918 100 258 1.7 2.6 0.00 0.00 0.00 38 1016.4
20260905172416 100 22 0.0 0.0 0.00 0.00 0.00 38 1016.3
20260905171912 100 45 0.9 1.7 0.00 0.00 0.00 39 1016.5
20260905171409 99 248 2.6 2.6 0.00 0.00 0.00 39 1016.5
20260905170905 100 102 4.3 5.2 0.00 0.00 0.00 38 1016.6
20260905170401 97 5 0.0 0.0 0.00 0.00 0.00 41 1016.8
20260905165901 97 27 0.9 0.9 0.00 0.00 0.00 42 1016.7
20260905165356 97 1 2.6 3.5 0.00 0.00 0.00 41 1016.7
20260905164856 97 273 2.6 3.5 0.00 0.00 0.00 42 1016.7
20260905164351 97 317 5.2 7.0 0.00 0.00 0.00 41 1016.6
20260905163846 96 25 1.7 2.6 0.00 0.00 0.00 42 1016.6
20260905163342 96 24 1.7 2.6 0.00 0.00 0.00 43 1016.7
20260905162838 96 323 3.5 6.1 0.00 0.00 0.00 43 1016.6
20260905162338 96 62 1.7 1.7 0.00 0.00 0.00 43 1016.7
20260905161832 96 336 0.0 0.9 0.00 0.00 0.00 44 1016.9
20260905161332 96 16 0.9 0.9 0.00 0.00 0.00 44 1016.7
20260905160830 95 24 0.9 0.9 0.00 0.00 0.00 45 1016.7
20260905160325 96 144 1.7 2.6 0.00 0.00 0.00 44 1016.8
20260905155819 95 156 0.9 1.7 0.00 0.00 0.00 45 1016.9
20260905155318 95 353 3.5 5.2 0.00 0.00 0.00 45 1016.8
20260905154814 95 294 0.9 1.7 0.00 0.00 0.00 46 1016.8
20260905154309 94 354 1.7 2.6 0.00 0.00 0.00 47 1016.8
20260905153804 93 6 2.6 3.5 0.00 0.00 0.00 47 1016.6
20260905153301 93 216 2.6 3.5 0.00 0.00 0.00 48 1016.7
20260905152759 93 336 3.5 3.5 0.00 0.00 0.00 48 1016.7
20260905152259 93 281 1.7 3.5 0.00 0.00 0.00 48 1016.6
20260905151754 93 291 2.6 3.5 0.00 0.00 0.00 48 1016.6
20260905151250 92 5 0.0 0.9 0.00 0.00 0.00 48 1016.5
20260905150750 92 209 2.6 3.5 0.00 0.00 0.00 48 1016.6
20260905150249 92 289 2.6 2.6 0.00 0.00 0.00 49 1016.5
20260905145747 92 192 5.2 7.8 0.00 0.00 0.00 49 1016.6
20260905145242 92 15 1.7 1.7 0.00 0.00 0.00 49 1016.6
20260905144740 92 240 1.7 1.7 0.00 0.00 0.00 50 1016.2
20260905144236 91 21 1.7 1.7 0.00 0.00 0.00 50 1016.4
20260905143730 90 233 1.7 2.6 0.00 0.00 0.00 51 1016.6
20260905143229 89 306 4.3 6.1 0.00 0.00 0.00 52 1016.3
20260905142727 89 329 1.7 2.6 0.00 0.00 0.00 53 1016.4
20260905142223 89 212 1.7 2.6 0.00 0.00 0.00 52 1016.3
20260905141719 89 287 1.7 1.7 0.00 0.00 0.00 53 1016.4
20260905141214 88 202 1.7 2.6 0.00 0.00 0.00 54 1016.3
20260905140709 88 11 2.6 2.6 0.00 0.00 0.00 54 1016.3
20260905140209 87 286 3.5 5.2 0.00 0.00 0.00 54 1016.5
20260905135703 87 236 0.9 1.7 0.00 0.00 0.00 55 1016.6
20260905135200 87 115 1.7 2.6 0.00 0.00 0.00 56 1016.5
20260905134659 86 191 3.5 3.5 0.00 0.00 0.00 56 1016.6
20260905134158 86 92 0.9 0.9 0.00 0.00 0.00 57 1016.5
20260905133653 85 21 0.0 0.9 0.00 0.00 0.00 58 1016.4
20260905133153 85 157 1.7 1.7 0.00 0.00 0.00 59 1016.3
20260905132653 84 147 1.7 1.7 0.00 0.00 0.00 60 1016.2
20260905132148 84 185 3.5 3.5 0.00 0.00 0.00 61 1016.3
20260905131644 84 289 1.7 1.7 0.00 0.00 0.00 61 1016.0
20260905131144 83 84 1.7 2.6 0.00 0.00 0.00 61 1016.0
20260905130638 84 170 3.5 3.5 0.00 0.00 0.00 61 1016.1
20260905130133 83 209 1.7 2.6 0.00 0.00 0.00 61 1016.1
20260905125626 83 220 2.6 2.6 0.00 0.00 0.00 62 1015.9
20260905125122 83 89 1.7 1.7 0.00 0.00 0.00 62 1016.0
20260905124619 82 186 1.7 2.6 0.00 0.00 0.00 62 1015.7
20260905124114 82 14 0.0 0.0 0.00 0.00 0.00 63 1015.8
20260905123609 82 28 0.0 0.0 0.00 0.00 0.00 63 1015.6
20260905123107 81 26 0.0 0.9 0.00 0.00 0.00 64 1015.7
20260905122601 81 22 0.0 0.9 0.00 0.00 0.00 64 1015.6
20260905122100 81 25 0.0 0.0 0.00 0.00 0.00 65 1015.6
20260905121555 80 17 0.0 0.0 0.00 0.00 0.00 66 1015.7
20260905121050 80 26 0.0 0.9 0.00 0.00 0.00 66 1015.5
20260905120549 80 23 0.0 0.0 0.00 0.00 0.00 65 1015.4
20260905120045 81 15 0.0 0.0 0.00 0.00 0.00 65 1015.4
20260905115543 81 70 0.9 0.9 0.00 0.00 0.00 65 1015.4
20260905115039 81 22 0.9 1.7 0.00 0.00 0.00 65 1015.4
20260905114538 81 132 1.7 2.6 0.00 0.00 0.00 65 1015.3
20260905114037 81 302 1.7 1.7 0.00 0.00 0.00 64 1015.3
20260905113532 81 43 0.0 0.9 0.00 0.00 0.00 64 1015.3
20260905113028 81 180 1.7 2.6 0.00 0.00 0.00 64 1015.2
20260905112523 81 324 0.9 0.9 0.00 0.00 0.00 64 1015.3
20260905112018 81 28 0.0 0.9 0.00 0.00 0.00 64 1015.4
20260905111513 81 221 1.7 2.6 0.00 0.00 0.00 63 1015.1
20260905111012 81 77 0.0 0.9 0.00 0.00 0.00 63 1015.2
20260905110511 81 348 0.9 0.9 0.00 0.00 0.00 63 1015.1
20260905110007 82 21 0.9 1.7 0.00 0.00 0.00 63 1015.3
20260905105501 82 256 0.9 0.9 0.00 0.00 0.00 63 1015.2
20260905105000 82 116 0.9 1.7 0.00 0.00 0.00 63 1015.1
20260905104456 82 250 2.6 2.6 0.00 0.00 0.00 62 1015.0
20260905103951 82 283 0.9 0.9 0.00 0.00 0.00 62 1015.0
20260905103446 82 220 1.7 1.7 0.00 0.00 0.00 62 1015.2
20260905102942 82 349 0.9 0.9 0.00 0.00 0.00 62 1015.2
20260905102438 82 333 0.9 0.9 0.00 0.00 0.00 62 1015.1
20260905101933 82 250 1.7 2.6 0.00 0.00 0.00 61 1015.0
20260905101431 82 276 1.7 1.7 0.00 0.00 0.00 61 1014.9
20260905100927 82 297 0.9 1.7 0.00 0.00 0.00 61 1015.1
20260905100422 82 51 1.7 1.7 0.00 0.00 0.00 61 1015.2
20260905095921 83 27 0.9 0.9 0.00 0.00 0.00 61 1015.2
20260905095416 83 224 2.6 2.6 0.00 0.00 0.00 60 1015.0
20260905094910 83 59 1.7 1.7 0.00 0.00 0.00 60 1014.9
20260905094406 83 181 1.7 2.6 0.00 0.00 0.00 60 1015.0
20260905093905 83 29 0.0 0.9 0.00 0.00 0.00 60 1015.0
20260905093401 83 186 2.6 2.6 0.00 0.00 0.00 60 1015.0
20260905092857 83 94 1.7 2.6 0.00 0.00 0.00 60 1014.9
20260905092356 83 41 1.7 1.7 0.00 0.00 0.00 60 1015.0
20260905091851 83 145 3.5 5.2 0.00 0.00 0.00 60 1015.0
20260905091351 83 88 1.7 1.7 0.00 0.00 0.00 60 1014.8
20260905090850 83 330 2.6 2.6 0.00 0.00 0.00 60 1014.9
20260905090346 84 46 0.9 0.9 0.00 0.00 0.00 59 1015.0
20260905085845 84 231 2.6 3.5 0.00 0.00 0.00 59 1014.8
20260905085345 84 86 1.7 2.6 0.00 0.00 0.00 59 1014.8
20260905084841 84 179 1.7 2.6 0.00 0.00 0.00 59 1014.7
20260905084340 84 195 2.6 2.6 0.00 0.00 0.00 59 1014.6
20260905083835 83 135 1.7 1.7 0.00 0.00 0.00 59 1014.6
20260905083331 83 197 0.9 0.9 0.00 0.00 0.00 60 1014.6
20260905082826 83 57 0.9 0.9 0.00 0.00 0.00 60 1014.6
20260905082323 83 74 0.9 1.7 0.00 0.00 0.00 60 1014.7
20260905081823 83 10 2.6 3.5 0.00 0.00 0.00 60 1014.4
20260905081318 84 53 1.7 1.7 0.00 0.00 0.00 60 1014.4
20260905080817 84 25 1.7 2.6 0.00 0.00 0.00 59 1014.5
20260905080312 84 181 1.7 1.7 0.00 0.00 0.00 59 1014.6
20260905075810 84 28 0.9 0.9 0.00 0.00 0.00 58 1014.6
20260905075310 84 18 0.0 0.0 0.00 0.00 0.00 58 1014.5
20260905074809 84 216 2.6 2.6 0.00 0.00 0.00 58 1014.6
20260905074305 85 8 0.9 0.9 0.00 0.00 0.00 57 1014.5
20260905073801 85 178 2.6 2.6 0.00 0.00 0.00 57 1014.6
20260905073256 85 205 1.7 2.6 0.00 0.00 0.00 57 1014.5
20260905072755 85 38 0.0 0.0 0.00 0.00 0.00 57 1014.7
20260905072251 85 5 0.0 0.9 0.00 0.00 0.00 57 1014.8
20260905071747 85 14 0.9 1.7 0.00 0.00 0.00 57 1014.6
20260905071243 85 186 1.7 1.7 0.00 0.00 0.00 57 1014.4